VOE9LE LFML-LGIR

Flight info

Callsign VOE9LE
Flight time N/A
Altitude 36000
Route NASIK P856 RAPED DCT PIGOS DCT EKSID DCT NOSTA DCT EGHIN DCT BEROK/N0437F380 DCT DOBOG DCT OGAPU/N0437F370 DCT IBENI DCT KOFER DCT PINDO DCT KEA UL607 GIVIS T514 XAVIS
Aircraft A319/M-SDFGIJ1RWY/LB1

Departure

Time N/A
Airport Marseille Provence Airport (LFML)

Arrival

Time 2026-04-30 19:59
Airport Heraklion International Nikos Kazantzakis Airport (LGIR)
Time Latitude Longitude Altitude Speed Heading
2026-04-30 17:39 43.40898 6.95748 30608 ft 477 kts 58°
2026-04-30 17:41 43.56085 7.25242 34148 ft 470 kts 52°
2026-04-30 17:42 43.59895 7.32588 34925 ft 470 kts 52°
2026-04-30 17:42 43.65569 7.43582 36165 ft 467 kts 52°
2026-04-30 17:43 43.69340 7.50897 36863 ft 467 kts 51°
2026-04-30 17:44 43.74998 7.61911 37189 ft 468 kts 51°
2026-04-30 17:44 43.80639 7.72964 37193 ft 468 kts 52°
2026-04-30 17:47 43.97534 8.06116 37208 ft 468 kts 51°
2026-04-30 17:48 44.04573 8.21270 37202 ft 473 kts 65°
2026-04-30 17:48 44.06370 8.34809 37225 ft 479 kts 83°
2026-04-30 17:50 44.08536 8.71851 37228 ft 481 kts 83°
2026-04-30 17:52 44.10056 8.99654 37219 ft 480 kts 83°
2026-04-30 17:54 44.12225 9.41200 37214 ft 477 kts 83°
2026-04-30 17:56 44.13953 9.76533 37194 ft 477 kts 83°
2026-04-30 17:58 44.15219 10.04217 37166 ft 477 kts 83°
2026-04-30 18:00 44.16412 10.41089 37262 ft 477 kts 88°
2026-04-30 18:01 44.15796 10.64142 37270 ft 476 kts 88°
2026-04-30 18:02 44.14993 10.91762 37251 ft 476 kts 88°
2026-04-30 18:04 44.14761 11.19347 37261 ft 474 kts 83°
2026-04-30 18:06 44.15795 11.56028 37273 ft 477 kts 88°
2026-04-30 18:08 44.14126 11.88377 37301 ft 479 kts 89°
2026-04-30 18:10 44.12090 12.25466 37303 ft 481 kts 90°
2026-04-30 18:11 44.10200 12.58026 37278 ft 483 kts 90°
2026-04-30 18:13 44.08792 12.81314 37295 ft 484 kts 90°
2026-04-30 18:14 44.07332 13.04686 37279 ft 485 kts 91°
2026-04-30 18:15 44.05509 13.32692 37282 ft 486 kts 91°
2026-04-30 18:16 44.04256 13.51465 37294 ft 487 kts 91°
2026-04-30 18:17 44.03614 13.60843 37279 ft 488 kts 91°
2026-04-30 18:18 44.02633 13.74940 37274 ft 489 kts 92°
2026-04-30 18:18 44.01970 13.84341 37271 ft 489 kts 92°
2026-04-30 18:19 44.00531 13.93600 37286 ft 496 kts 108°
2026-04-30 18:19 43.97361 14.02142 37279 ft 499 kts 118°
2026-04-30 18:20 43.93935 14.10529 37275 ft 499 kts 117°
2026-04-30 18:20 43.90520 14.18914 37274 ft 499 kts 117°
2026-04-30 18:21 43.87102 14.27300 37282 ft 499 kts 118°
2026-04-30 18:21 43.83659 14.35688 37275 ft 500 kts 118°
2026-04-30 18:22 43.80203 14.44054 37267 ft 500 kts 118°
2026-04-30 18:22 43.75017 14.56594 37267 ft 500 kts 118°
2026-04-30 18:23 43.71582 14.64883 37265 ft 500 kts 118°
2026-04-30 18:23 43.68109 14.73226 37266 ft 500 kts 118°
2026-04-30 18:24 43.62889 14.85722 37257 ft 501 kts 118°
2026-04-30 18:25 43.59404 14.94050 37270 ft 501 kts 119°
2026-04-30 18:25 43.54145 15.06529 37264 ft 501 kts 119°
2026-04-30 18:26 43.48880 15.18985 37253 ft 502 kts 119°
2026-04-30 18:27 43.43594 15.31434 37260 ft 502 kts 120°
2026-04-30 18:28 43.38900 15.42486 37240 ft 502 kts 120°
2026-04-30 18:28 43.33583 15.54911 37212 ft 503 kts 120°
2026-04-30 18:29 43.26463 15.71445 37219 ft 504 kts 120°
2026-04-30 18:30 43.19311 15.87995 37218 ft 505 kts 120°
2026-04-30 18:31 43.13917 16.00399 37234 ft 505 kts 121°
2026-04-30 18:32 43.08488 16.12832 37224 ft 505 kts 121°
2026-04-30 18:33 43.03059 16.25213 37193 ft 506 kts 121°
2026-04-30 18:33 42.97612 16.37595 37210 ft 508 kts 121°
2026-04-30 18:34 42.92141 16.49986 37196 ft 509 kts 121°
2026-04-30 18:35 42.88481 16.58250 37198 ft 509 kts 121°
2026-04-30 18:35 42.84805 16.66500 37200 ft 509 kts 122°
2026-04-30 18:36 42.79277 16.78859 37207 ft 510 kts 122°
2026-04-30 18:37 42.73741 16.91232 37184 ft 511 kts 122°
2026-04-30 18:37 42.70037 16.99487 37182 ft 511 kts 122°
2026-04-30 18:38 42.66316 17.07735 37200 ft 512 kts 122°
2026-04-30 18:38 42.62588 17.15981 37205 ft 512 kts 122°
2026-04-30 18:39 42.58854 17.24205 37196 ft 512 kts 122°
2026-04-30 18:39 42.55108 17.32419 37197 ft 512 kts 122°
2026-04-30 18:40 42.51338 17.40680 37208 ft 512 kts 122°
2026-04-30 18:40 42.47587 17.48884 37163 ft 512 kts 123°
2026-04-30 18:41 42.43830 17.57078 37168 ft 512 kts 123°
2026-04-30 18:41 42.40064 17.65274 37166 ft 513 kts 123°
2026-04-30 18:42 42.36290 17.73453 37174 ft 513 kts 123°
2026-04-30 18:42 42.30619 17.85717 37186 ft 513 kts 123°
2026-04-30 18:45 42.09718 18.30437 37152 ft 513 kts 124°
2026-04-30 18:46 42.05898 18.38556 37155 ft 514 kts 124°
2026-04-30 18:46 42.02065 18.46677 37169 ft 514 kts 124°
2026-04-30 18:47 41.98224 18.54778 37166 ft 514 kts 124°
2026-04-30 18:47 41.94368 18.62882 37166 ft 514 kts 124°
2026-04-30 18:48 41.90123 18.70639 37173 ft 512 kts 131°
2026-04-30 18:48 41.85616 18.78038 37136 ft 512 kts 132°
2026-04-30 18:49 41.81095 18.85424 37153 ft 513 kts 132°
2026-04-30 18:49 41.76571 18.92823 37156 ft 513 kts 132°
2026-04-30 18:50 41.72043 19.00222 37147 ft 513 kts 132°
2026-04-30 18:50 41.67502 19.07600 37148 ft 514 kts 132°
2026-04-30 18:51 41.62954 19.14965 37136 ft 514 kts 132°
2026-04-30 18:51 41.58402 19.22325 37115 ft 513 kts 133°
2026-04-30 18:52 41.53852 19.29668 37116 ft 513 kts 133°
2026-04-30 18:52 41.49293 19.37007 37124 ft 513 kts 133°
2026-04-30 18:53 41.44736 19.44331 37122 ft 513 kts 133°
2026-04-30 18:53 41.40176 19.51646 37125 ft 513 kts 133°
2026-04-30 18:54 41.35616 19.58936 37122 ft 512 kts 133°
2026-04-30 18:54 41.31041 19.66221 37110 ft 512 kts 133°
2026-04-30 18:55 41.26482 19.73486 37091 ft 512 kts 133°
2026-04-30 18:55 41.19613 19.84391 37106 ft 512 kts 134°
2026-04-30 18:56 41.12707 19.95285 37123 ft 512 kts 134°
2026-04-30 18:57 41.05829 20.06114 37122 ft 512 kts 134°
2026-04-30 18:57 41.01247 20.13321 37138 ft 511 kts 134°
2026-04-30 18:58 40.94357 20.24088 37146 ft 511 kts 134°
2026-04-30 18:59 40.87465 20.34839 37167 ft 511 kts 134°
2026-04-30 19:00 40.78276 20.49135 37173 ft 510 kts 134°
2026-04-30 19:01 40.69060 20.63374 37168 ft 509 kts 134°
2026-04-30 19:02 40.62905 20.72865 37174 ft 509 kts 134°
2026-04-30 19:03 40.53695 20.87004 37168 ft 508 kts 134°
2026-04-30 19:04 40.44062 21.00449 37137 ft 503 kts 141°
2026-04-30 19:05 40.33776 21.12858 37156 ft 502 kts 141°
2026-04-30 19:06 40.23505 21.25213 37152 ft 501 kts 142°
2026-04-30 19:06 40.15803 21.34448 37124 ft 500 kts 142°
2026-04-30 19:07 40.08088 21.43637 37140 ft 500 kts 142°
2026-04-30 19:08 39.97816 21.55851 37128 ft 499 kts 142°
2026-04-30 19:09 39.90122 21.64986 37097 ft 499 kts 142°
2026-04-30 19:09 39.84984 21.71059 37099 ft 499 kts 142°
2026-04-30 19:10 39.74668 21.83215 37100 ft 498 kts 142°
2026-04-30 19:11 39.66968 21.92248 37111 ft 497 kts 142°
2026-04-30 19:12 39.61839 21.98256 37083 ft 497 kts 141°
2026-04-30 19:12 39.56706 22.04270 37090 ft 496 kts 142°
2026-04-30 19:13 39.46440 22.16216 37084 ft 496 kts 142°
2026-04-30 19:14 39.41302 22.22180 37083 ft 496 kts 142°
2026-04-30 19:14 39.36165 22.28134 37067 ft 496 kts 142°
2026-04-30 19:15 39.31023 22.34085 37066 ft 496 kts 142°
2026-04-30 19:15 39.23292 22.43001 37071 ft 496 kts 142°
2026-04-30 19:16 39.18149 22.48917 37070 ft 495 kts 141°
2026-04-30 19:17 39.10441 22.57768 37114 ft 494 kts 142°
2026-04-30 19:17 39.02720 22.66591 37093 ft 492 kts 141°
2026-04-30 19:18 38.95038 22.75354 37079 ft 492 kts 141°
2026-04-30 19:19 38.89924 22.81175 37075 ft 491 kts 141°
2026-04-30 19:19 38.82240 22.89889 37062 ft 491 kts 142°
2026-04-30 19:20 38.77126 22.95676 37055 ft 490 kts 142°
2026-04-30 19:21 38.69459 23.04350 37055 ft 490 kts 142°
2026-04-30 19:22 38.59229 23.15842 37050 ft 489 kts 142°
2026-04-30 19:23 38.43879 23.33049 37032 ft 490 kts 142°
2026-04-30 19:24 38.36187 23.41620 37026 ft 490 kts 142°
2026-04-30 19:25 38.23340 23.55889 37012 ft 491 kts 142°
2026-04-30 19:26 38.12991 23.67325 37013 ft 492 kts 142°
2026-04-30 19:27 38.05244 23.75859 37017 ft 492 kts 142°
2026-04-30 19:28 37.97485 23.84390 37015 ft 492 kts 142°
2026-04-30 19:29 37.87139 23.95719 37040 ft 492 kts 142°
2026-04-30 19:30 37.76773 24.07015 37018 ft 492 kts 143°
2026-04-30 19:31 37.66433 24.18253 37005 ft 489 kts 142°
2026-04-30 19:31 37.58656 24.26661 37006 ft 488 kts 143°
2026-04-30 19:32 37.53259 24.31792 37007 ft 483 kts 152°
2026-04-30 19:32 37.47561 24.36277 36995 ft 483 kts 152°
2026-04-30 19:33 37.41870 24.40745 36995 ft 483 kts 152°
2026-04-30 19:33 37.36163 24.45218 36976 ft 483 kts 152°
2026-04-30 19:34 37.31424 24.48922 36978 ft 483 kts 152°
2026-04-30 19:35 37.22855 24.55603 36983 ft 483 kts 152°
2026-04-30 19:35 37.17142 24.60060 36983 ft 484 kts 152°
2026-04-30 19:36 37.11388 24.64538 36973 ft 484 kts 152°
2026-04-30 19:36 37.02838 24.71182 36980 ft 484 kts 152°
2026-04-30 19:37 36.97078 24.75649 36983 ft 484 kts 152°
2026-04-30 19:37 36.91346 24.80075 36988 ft 484 kts 152°
2026-04-30 19:38 36.85606 24.84507 36966 ft 485 kts 153°
2026-04-30 19:38 36.79866 24.88940 36974 ft 486 kts 153°
2026-04-30 19:39 36.74118 24.93373 36980 ft 486 kts 153°
2026-04-30 19:39 36.68360 24.97808 36984 ft 486 kts 153°
2026-04-30 19:40 36.62600 25.02229 36993 ft 486 kts 153°
2026-04-30 19:40 36.56836 25.06636 36990 ft 487 kts 153°
2026-04-30 19:41 36.51056 25.11052 36889 ft 488 kts 153°
2026-04-30 19:41 36.48165 25.13261 36627 ft 488 kts 153°
2026-04-30 19:41 36.45270 25.15471 36370 ft 488 kts 153°
2026-04-30 19:42 36.42348 25.17703 36120 ft 488 kts 153°
2026-04-30 19:42 36.39455 25.19912 35867 ft 487 kts 153°
2026-04-30 19:42 36.36563 25.22115 35613 ft 487 kts 153°
2026-04-30 19:42 36.33676 25.24303 35352 ft 487 kts 153°
2026-04-30 19:43 36.30772 25.26501 34482 ft 491 kts 153°
2026-04-30 19:43 36.27838 25.28717 33354 ft 496 kts 153°
2026-04-30 19:43 36.24902 25.30938 32389 ft 493 kts 152°
2026-04-30 19:44 36.19043 25.35376 30199 ft 494 kts 151°
2026-04-30 19:44 36.16104 25.37599 28866 ft 494 kts 151°
2026-04-30 19:44 36.13128 25.39743 27420 ft 494 kts 155°
2026-04-30 19:44 36.09982 25.41420 25946 ft 492 kts 163°
2026-04-30 19:45 36.06727 25.42734 24371 ft 494 kts 165°
2026-04-30 19:45 36.03444 25.44045 23121 ft 491 kts 165°
2026-04-30 19:45 36.00223 25.45335 21968 ft 483 kts 164°
2026-04-30 19:45 35.97020 25.46622 20879 ft 474 kts 164°
2026-04-30 19:46 35.93908 25.47879 19846 ft 466 kts 164°
2026-04-30 19:46 35.90850 25.49118 18855 ft 459 kts 164°
2026-04-30 19:46 35.87844 25.50332 17868 ft 452 kts 164°
2026-04-30 19:46 35.84868 25.51529 16805 ft 446 kts 164°
2026-04-30 19:47 35.81934 25.52707 15780 ft 441 kts 164°
2026-04-30 19:47 35.80009 25.53476 15137 ft 439 kts 164°
2026-04-30 19:47 35.76137 25.55017 13923 ft 434 kts 164°
2026-04-30 19:47 35.73287 25.56153 12969 ft 430 kts 163°
2026-04-30 19:48 35.70512 25.57396 12590 ft 415 kts 157°
2026-04-30 19:48 35.68078 25.59124 12462 ft 394 kts 146°
2026-04-30 19:48 35.65980 25.61148 12334 ft 374 kts 142°
2026-04-30 19:48 35.63999 25.63101 12208 ft 355 kts 142°
2026-04-30 19:49 35.62092 25.64914 12083 ft 339 kts 148°
2026-04-30 19:49 35.57815 25.65562 11605 ft 306 kts 204°
2026-04-30 19:49 35.56083 25.64163 11201 ft 296 kts 230°
2026-04-30 19:50 35.54977 25.62096 10778 ft 289 kts 246°
2026-04-30 19:50 35.54034 25.59914 10350 ft 289 kts 246°
2026-04-30 19:50 35.53084 25.57719 9945 ft 286 kts 246°
2026-04-30 19:50 35.52139 25.55541 9405 ft 287 kts 245°
2026-04-30 19:51 35.51204 25.53399 9005 ft 283 kts 245°
2026-04-30 19:51 35.50279 25.51280 8558 ft 281 kts 245°
2026-04-30 19:51 35.49363 25.49177 8105 ft 278 kts 245°
2026-04-30 19:51 35.48460 25.47102 7473 ft 274 kts 244°
2026-04-30 19:52 35.47570 25.45055 6789 ft 271 kts 244°
2026-04-30 19:52 35.46676 25.43038 6081 ft 267 kts 240°
2026-04-30 19:52 35.45663 25.41690 5611 ft 265 kts 217°
2026-04-30 19:52 35.44012 25.40871 5364 ft 252 kts 191°
2026-04-30 19:53 35.42315 25.41027 5218 ft 243 kts 164°
2026-04-30 19:53 35.40826 25.41925 5084 ft 234 kts 153°
2026-04-30 19:53 35.39440 25.42877 4964 ft 223 kts 153°
2026-04-30 19:53 35.38053 25.43643 4846 ft 217 kts 171°
2026-04-30 19:54 35.36579 25.43519 4643 ft 213 kts 202°
2026-04-30 19:54 35.35397 25.42496 4317 ft 208 kts 233°
2026-04-30 19:54 35.34711 25.40946 4020 ft 206 kts 247°
2026-04-30 19:54 35.34098 25.39340 3739 ft 206 kts 246°
2026-04-30 19:55 35.33493 25.37771 3434 ft 207 kts 246°
2026-04-30 19:55 35.32921 25.36131 3104 ft 208 kts 257°
2026-04-30 19:55 35.32837 25.34381 2806 ft 206 kts 276°
2026-04-30 19:55 35.32967 25.32638 2514 ft 202 kts 276°
2026-04-30 19:56 35.33081 25.30971 2287 ft 189 kts 275°
2026-04-30 19:56 35.33186 25.29418 2000 ft 175 kts 275°
2026-04-30 19:56 35.33283 25.27984 1747 ft 162 kts 275°
2026-04-30 19:56 35.33368 25.26713 1517 ft 141 kts 275°
2026-04-30 19:57 35.33445 25.25579 1315 ft 129 kts 275°
2026-04-30 19:57 35.33518 25.24511 1135 ft 124 kts 275°
2026-04-30 19:57 35.33592 25.23456 1017 ft 125 kts 275°
2026-04-30 19:57 35.33673 25.22400 717 ft 124 kts 275°
2026-04-30 19:58 35.33748 25.21350 568 ft 124 kts 274°
2026-04-30 19:58 35.33817 25.20297 382 ft 124 kts 273°
2026-04-30 19:58 35.33890 25.19249 176 ft 123 kts 273°
2026-04-30 19:58 35.33966 25.18222 95 ft 112 kts 276°
2026-04-30 19:59 35.34014 25.17455 91 ft 56 kts 275°
2026-04-30 19:59 35.34021 25.17191 90 ft 21 kts 256°
2026-04-30 19:59 35.33931 25.17167 91 ft 17 kts 79°
2026-04-30 20:00 35.33921 25.17349 91 ft 25 kts 96°
2026-04-30 20:00 35.33908 25.17487 91 ft 14 kts 106°
2026-04-30 20:00 35.33847 25.17494 93 ft 9 kts 213°
2026-04-30 20:00 35.33862 25.17440 92 ft 7 kts 320°
2026-04-30 20:01 35.33877 25.17424 91 ft 0 kts 318°